This demonstration page uses our WeatherBlox Daily Observations layout. Learn more.

Left ArrowRight Arrow

40.92945, -100.16068

Hourly Observations for October 21, 2018

Temp ( °F °C ) Dew Point ( °F °C ) Humidity (%) Winds ( mph kmh ) Pressure ( in mb ) Visibility ( mi km ) Precip ( " mm )
12:15 am 00:15 Clear 42 5.5 29 -1.6 61 61 SSE 8 13 30.36 1028 10 16.0934 0 0
12:35 am 00:35 Clear 40 4.5 29 -1.5 65 65 SSE 8 13 30.36 1028 10 16.0934 0 0
12:55 am 00:55 Clear 40 4.5 29 -1.5 65 65 SSE 7 11 30.36 1028 10 16.0934 0 0
1:15 am 01:15 Clear 40 4.2 29 -1.6 66 66 S 8 13 30.36 1028 10 16.0934 0 0
1:35 am 01:35 Clear 42 5.5 29 -1.7 60 60 SSE 9 15 30.36 1028 10 16.0934 0 0
1:55 am 01:55 Clear 41 4.8 29 -1.5 64 64 SSE 8 13 30.36 1028 10 16.0934 0 0
2:15 am 02:15 Clear 40 4.5 29 -1.5 65 65 SSE 8 13 30.33 1027 10 16.0934 0 0
2:35 am 02:35 Clear 41 5 29 -1.5 63 63 SE 7 11 30.33 1027 10 16.0934 0 0
2:55 am 02:55 Clear 43 5.9 29 -1.7 59 59 SE 8 13 30.33 1027 10 16.0934 0 0
3:15 am 03:15 Clear 43 6.3 29 -1.5 58 58 SSE 8 13 30.3 1026 10 16.0934 0 0
3:35 am 03:35 Clear 44 6.5 30 -1.2 58 58 SSE 8 13 30.3 1026 10 16.0934 0 0
3:55 am 03:55 Clear 44 6.6 31 -0.8 60 60 SSE 8 13 30.27 1025 10 16.0934 0 0
4:15 am 04:15 Clear 45 7.1 31 -0.4 59 59 S 10 17 30.27 1025 10 16.0934 0 0
4:35 am 04:35 Clear 45 7 31 -0.3 60 60 S 13 20 30.27 1025 10 16.0934 0 0
4:55 am 04:55 Clear 44 6.6 32 0 63 63 S 9 15 30.24 1024 10 16.0934 0 0
5:15 am 05:15 Clear 44 6.7 32 0 63 63 S 12 19 30.24 1024 10 16.0934 0 0
5:35 am 05:35 Clear 45 7.1 32 0.1 61 61 S 13 20 30.24 1024 10 16.0934 0 0
5:55 am 05:55 Clear 45 7.2 32 0.1 61 61 S 10 17 30.24 1024 10 16.0934 0 0
6:15 am 06:15 Clear 45 7.3 33 0.5 62 62 SSE 13 20 30.24 1024 10 16.0934 0 0
6:35 am 06:35 Clear 45 7.1 33 0.6 64 64 SE 7 11 30.24 1024 10 16.0934 0 0
6:55 am 06:55 Clear 45 7 33 0.7 65 65 SE 7 11 30.24 1024 10 16.0934 0 0
7:15 am 07:15 Clear 45 7 34 1 66 66 S 17 28 30.21 1023 10 16.0934 0 0
7:35 am 07:35 Clear 44 6.8 34 1.1 67 67 S 12 19 30.21 1023 10 16.0934 0 0
7:55 am 07:55 Clear 43 6.3 34 1 69 69 Calm 30.21 1023 10 16.0934 0 0
8:15 am 08:15 Sunny 43 6.2 34 1.1 70 70 S 8 13 30.21 1023 10 16.0934 0 0
8:35 am 08:35 Sunny 44 6.5 35 1.5 71 71 S 7 11 30.21 1023 10 16.0934 0 0
8:55 am 08:55 Sunny 45 7 36 2 71 71 S 3 6 30.21 1023 10 16.0934 0 0
9:15 am 09:15 Sunny 46 7.9 36 2.3 68 68 S 7 11 30.21 1023 10 16.0934 0 0
9:35 am 09:35 Sunny 49 9.3 37 3 65 65 SSW 7 11 30.18 1022 10 16.0934 0 0
9:55 am 09:55 Sunny 51 10.7 38 3.4 61 61 SW 12 19 30.18 1022 10 16.0934 0 0
10:15 am 10:15 Sunny 52 11.2 38 3.4 59 59 SSW 12 19 30.12 1020 10 16.0934 0 0
10:35 am 10:35 Sunny 54 12 38 3.6 57 57 SW 12 19 30.12 1020 10 16.0934 0 0
10:55 am 10:55 Sunny 56 13.1 39 3.7 53 53 SSW 9 15 30.12 1020 10 16.0934 0 0
11:15 am 11:15 Sunny 58 14.5 39 3.9 49 49 SW 10 17 30.06 1018 10 16.0934 0 0
11:35 am 11:35 Sunny 60 15.4 39 3.7 46 46 SW 10 17 30.06 1018 10 16.0934 0 0
11:55 am 11:55 Sunny 62 16.7 40 4.2 44 44 SW 7 11 30.06 1018 10 16.0934 0 0
12:15 pm 12:15 Sunny 64 17.9 40 4.2 40 40 SSW 10 17 30.03 1017 10 16.0934 0 0
12:35 pm 12:35 Sunny 66 18.9 39 4 37 37 SSW 12 19 30 1016 10 16.0934 0 0
12:55 pm 12:55 Sunny 68 19.9 38 3.5 34 34 SW 14 22 30 1016 10 16.0934 0 0
1:15 pm 13:15 Sunny 70 21 38 3.3 31 31 SSW 16 26 29.94 1014 10 16.0934 0 0
1:35 pm 13:35 Sunny 71 21.6 38 3.1 30 30 SW 17 28 29.94 1014 10 16.0934 0 0
1:55 pm 13:55 Sunny 71 21.9 38 3.6 30 30 SSW 15 24 29.94 1014 10 16.0934 0 0
2:15 pm 14:15 Sunny 72 22.3 38 3.6 29 29 SSW 16 26 29.94 1014 10 16.0934 0 0
2:35 pm 14:35 Sunny 73 22.5 37 3 28 28 SW 15 24 29.94 1014 10 16.0934 0 0
2:55 pm 14:55 Sunny 74 23.5 37 3 26 26 SSW 15 24 29.94 1014 10 16.0934 0 0
3:15 pm 15:15 Sunny 74 23.3 37 2.7 26 26 SW 10 17 29.94 1014 10 16.0934 0 0
3:35 pm 15:35 Sunny 77 25 34 1 21 21 SSW 12 19 29.88 1012 10 16.0934 0 0
3:55 pm 15:55 Sunny 79 26 33 0.4 19 19 SSW 12 19 29.88 1012 10 16.0934 0 0
4:15 pm 16:15 Sunny 78 25.7 31 -0.7 18 18 SW 13 20 29.88 1012 10 16.0934 0 0
4:35 pm 16:35 Sunny 79 26 31 -0.3 18 18 S 15 24 29.85 1011 10 16.0934 0 0
4:55 pm 16:55 Sunny 77 25.1 33 0.3 20 20 SSW 13 20 29.85 1011 10 16.0934 0 0
5:15 pm 17:15 Sunny 78 25.6 32 -0.2 18 18 S 15 24 29.85 1011 10 16.0934 0 0
5:35 pm 17:35 Sunny 75 23.8 32 0.2 21 21 S 12 19 29.85 1011 10 16.0934 0 0
5:55 pm 17:55 Sunny 75 23.9 36 2.3 24 24 S 12 19 29.85 1011 10 16.0934 0 0
6:15 pm 18:15 Sunny 73 22.8 37 2.6 27 27 SSW 12 19 29.88 1012 10 16.0934 0 0
6:35 pm 18:35 Sunny 70 20.9 37 3 31 31 S 9 15 29.88 1012 10 16.0934 0 0
6:55 pm 18:55 Clear 64 17.9 38 3.5 39 39 S 7 11 29.91 1013 10 16.0934 0 0
7:15 pm 19:15 Clear 63 17 39 3.7 41 41 S 3 6 29.94 1014 10 16.0934 0 0
7:35 pm 19:35 Clear 62 16.8 39 3.8 42 42 SE 3 6 29.94 1014 10 16.0934 0 0
7:55 pm 19:55 Clear 63 17 39 3.7 41 41 Calm 29.94 1014 10 16.0934 0 0
8:15 pm 20:15 Clear 59 15 39 4.1 48 48 E 3 6 29.97 1015 7 11.26538 0 0
8:35 pm 20:35 Clear 58 14.2 39 4.1 51 51 SE 6 9 29.97 1015 10 16.0934 0 0
8:55 pm 20:55 Clear 57 14 39 4.1 52 52 ESE 5 7 29.97 1015 10 16.0934 0 0
9:15 pm 21:15 Clear 55 12.8 40 4.2 56 56 SE 5 7 30 1016 10 16.0934 0 0
9:35 pm 21:35 Clear 55 13 39 4.1 55 55 Calm 30 1016 10 16.0934 0 0
9:55 pm 21:55 Clear 51 10.3 39 4.1 66 66 ENE 3 6 30 1016 10 16.0934 0 0
10:15 pm 22:15 Clear 50 10 39 4.1 67 67 Calm 30 1016 10 16.0934 0 0
10:35 pm 22:35 Clear 47 8.3 39 3.7 73 73 Calm 30.03 1017 10 16.0934 0 0
10:55 pm 22:55 Clear 48 8.8 39 4 72 72 NE 5 7 30.03 1017 10 16.0934 0 0
11:15 pm 23:15 Clear 47 8.1 39 4 76 76 NNE 8 13 30.06 1018 10 16.0934 0 0
11:35 pm 23:35 Clear 46 8 39 4 76 76 NNE 5 7 30.06 1018 10 16.0934 0 0
11:55 pm 23:55 Clear 46 7.7 39 3.8 77 77 NNE 7 11 30.06 1018 10 16.0934 0 0

Powered by AerisWeather